Preview of NWS' New Version of Forecast
This preview is not operational and should not be used for support decisions.

Regional Weather Roundup (RWR)

Issued by National Weather Service (NWS)

                            
000
ASCA42 TJSJ 261010
RWRPR 
PUERTO RICO/U.S. VIRGIN ISLANDS HOURLY WEATHER ROUNDUP
NATIONAL WEATHER SERVICE SAN JUAN PR
600 AM AST TUE MAR 26 2019

PRZ001>002-007>008-010-261100-
PUERTO RICO
  
CITY           SKY/WX    TMP DP  RH WIND       PRES   REMARKS
SAN JUAN LMM   PTCLDY    73  70  88 CALM      29.95R                  
CEIBA          PTCLDY    77  70  78 SE5       29.97R                  
$$

VIZ001>002-261100-
U.S. VIRGIN ISLANDS
  
CITY           SKY/WX    TMP DP  RH WIND       PRES   REMARKS
CHARLOTTE AMA  PTCLDY    79  72  78 E14       29.95R                  
$$

HOURLY WEATHER ROUNDUP FOR THE NEWS MEDIA
  
CITY           SKY/WX    TMP DP  RH WIND       PRES   REMARKS
ORLANDO        FAIR      66  64  93 NW8       30.01S                  
NEW YORK       FAIR      33   5  30 N14G26    30.17R WCI  23          
NEWARK         FAIR      32   5  32 N14       30.19R WCI  22          
CHICAGO        FAIR      25  17  72 N5        30.40R WCI  19          
HARTFORD       CLOUDY    34  24  67 N6        30.14R WCI  29          
BOSTON         FAIR      33   7  33 N7        30.19R WCI  27          
DALLAS         PTCLDY    53  45  74 N5        30.29F                  
PHILADELPHIA   FAIR      34   7  32 N20G25    30.18R WCI  23          
LOS ANGELES    FAIR      55  52  89 S5        30.03F                  
WASHINGTON DC  MOCLDY    38  22  52 N13G21    30.17R WCI  30